NSS 11 (AAP-1)

导读 | 豆包AI

NSS 11(又称AAP-1)由SES运营,于2000年10月1日08:00发射升空,是SES卫星系列的重要组成部分。该卫星主要承担通信广播服务任务,覆盖特定区域,为用户提供稳定的电视转播、数据传输等通信支持,服役多年来持续保障相关领域的通信需求,在区域通信基础设施中发挥着基础性作用。

Basic Information
目录编号:
26554
目录名称:
NSS 11 (AAP-1)
国际标识:
2000-059A
轨道中心:
EARTH
卫星名称:
NSS 11 (AAP-1)
卫星全名:
--
卫星状态:
在轨 (已飞行9295 天)
发射日期:
2000-10-01 UTC
国别 :
(SES)
星等 :
--
Orbit Information
数据来源 国际轨道数据 AOE轨道数据
星历时间 2026-03-14T05:21:58+0800
7小时前
查看轨道信息
2026-03-10T19:00:00+0800
3天前
查看轨道信息
半长轴 42164.7km 42164.476km
偏心率 0.0003124 0.0003109
轨道倾角 1.879° 1.871°
近地点辐角 275.765° 268.411°
升交点赤经 82.543° 82.592°
平近点角 309.688° 158.115°
近地点 35773.39km 35773.23km
远地点 35799.736km 35799.448km
周期 1436.095分钟 1436.084分钟
每日圈数 1.002719 1.002727
Detailed Information
使用方式:
暂无
2D Orbit Map
3D Orbit Map
Orbit Altitude Analysis Chart
Orbit Inclination Analysis Chart
Orbit Comprehensive Analysis Chart
View Comprehensive Chart